Regional Weather Roundup
Issued by NWS Newport/Morehead, NC

Current Version | Previous Version | Graphics & Text | Print | Product List | Glossary Off
Versions: 1 2 3 4 5 6 7 8 9 10 11 12 13 14 15 16 17 18 19 20 21 22 23 24 25 26 27 28 29 30 31 32 33 34 35 36 37 38 39 40 41 42 43 44 45 46 47 48 49 50

000
ASUS42 KMHX 222325
RWRMHX
WEATHER ROUNDUP FOR EASTERN NORTH CAROLINA
NATIONAL WEATHER SERVICE NEWPORT/MOREHEAD CITY NC
600 PM EST WED FEB 22 2017

NOTE: "FAIR" INDICATES FEW OR NO CLOUDS BELOW 12,000 FEET
WITH NO SIGNIFICANT WEATHER AND/OR OBSTRUCTIONS TO VISIBILITY

NCZ015>017-031-032-045>047-102-103-230000-
NORTH COAST

CITY           SKY/WX    TMP DP  RH WIND       PRES   REMARKS
EDENTON        CLOUDY    64  52  65 CALM      29.96S
ELIZABETH CITY CLOUDY    60  51  72 E6        29.96S
KITTY HAWK     NOT AVBL
MANTEO         CLOUDY    61  49  65 SE6       29.98R

$$

NCZ045>047-081-094-103-104-230000-
CENTRAL COAST

CITY           SKY/WX    TMP DP  RH WIND       PRES   REMARKS
FRISCO         MOCLDY    67  53  61 S7        29.97S

$$

NCZ095-097-098-100-101-230000-
SOUTHERN COAST

CITY           SKY/WX    TMP DP  RH WIND       PRES   REMARKS
BEAUFORT       PTCLDY    64  52  64 CALM      29.95S
CEDAR ISLAND   NOT AVBL
JACKSONVILLE   PTCLDY    64  55  72 S6        29.94S
PINEY ISLAND   PTCLDY   N/A N/A N/A S3        29.95S
WILMINGTON     MOCLDY    66  55  67 SE7       29.94R


$$

NCZ011>013-027>030-043-044-078>080-089-090>093-098-230000-
COASTAL PLAIN

CITY           SKY/WX    TMP DP  RH WIND       PRES   REMARKS
AHOSKIE        NOT AVBL
CLINTON        MOCLDY    66  54  64 CALM      29.93R
ELIZABETHTOWN  MOCLDY    68  54  61 SE6       29.93R
GOLDSBORO      CLOUDY    68  54  59 SE7       29.91S
GREENVILLE     CLOUDY    68  52  56 S6        29.96R
HAVELOCK       NOT AVBL
KENANSVILLE    NOT AVBL
KINSTON        CLOUDY    68  52  56 S8        29.95R
NEW BERN       PTCLDY    65  52  62 S5        29.96R
RICHLANDS      CLOUDY    65  54  67 CALM      29.95R
ROCKY MOUNT    CLOUDY    64  52  64 CALM      29.94R
WASHINGTON     CLOUDY    65  53  65 SE5       29.95R
WHITEVILLE     PTCLDY    67  54  63 SE5       29.93R

$$

AMZ130-135-150-152-154-156-158-170-250-252-270-ANZ085-086-088-633-658-670-230000-
MARINE OBSERVATIONS

STATION/POSITION TIME  TEMP    WIND        PRES    WAVE   SWELL
                       AIR SEA DIR/SP/G            HT/PER HT/PER
                 (UTC) (F)     (DEG/KT/KT) (MB)    (FT/S) (FT/S)
CHESAPEAKE LIGHT NOT AVBL
64 E VA BEACH    2250   58 55  170/  6/  6 1014.9    3/ 9   3/ 9
DUCK             2236   53 48  140/  8/  8 1014.2
2 E DUCK         2300      51                N/A     2/ 9   2/11
OREGON INLET     2300   56 53  100/  5/  7 1014.8
13E OREGON INLT  NOT AVBL
HATTERAS CG      2300   66 60  160/  5/  6 1014.4
DIAMOND BUOY     2250   67 75  130/  8/ 12 1014.8    3/ 8   2/ 8
CAPE LOOKOUT     2300   63     150/  1/  2 1014.0
BEAUFORT LAB     2300   62 54  120/  1/  2 1013.4
30 SE NEW RVR IN 2308   68     150/  8/ 12 1014.0
30 SE NEW RVR IN 2313      69                N/A     4/ 8   2/11
27 SE WRIGHTSVLE 2308   67 65     CALM     1013.3
5 SE WRIGHTSVLE  2308   61 58  110/  4/  6 1013.7
225 S CAPE HAT   2250   66 70  100/ 14/ 17 1014.6    5/ 9   3/ 9
41 SE CHARLESTON 2250   69 70  110/ 19/ 23 1010.2    6/ 7   2/ 8

$$




USA.gov is the U.S. government's official web portal to all federal, state and local government web resources and services.